Temp_Advection
nan nan nan nan nan nan nan nan nan nan nan nan nan nan nan nan nan nan nan nan nan nan nan nan nan nan nan nan nan nan nan nan nan nan nan nan nan nan nan nan nan nan nan nan nan
nan -0 -0 -0 -0 -1 -1 -1 -1 -0 -0 -0 -0 -0 0 0 0 -1 -1 -0 -0 0 -0 -0 -0 -0 -0 -0 0 0 0 -1 -0 -0 -0 -0 -0 -1 0 0 0 0 -0 0 nan
nan 0 0 -0 -0 -0 -1 -1 -1 -1 -0 -0 -0 -0 0 0 -1 -2 -0 0 0 -0 -0 -0 -0 0 0 0 -0 0 -0 -0 -1 -1 0 -0 -0 -0 -0 -0 -0 0 0 0 nan
nan -0 -0 0 -0 -0 -0 -1 -1 -1 -0 -0 -0 0 0 0 -0 -0 -0 0 0 -0 -0 0 0 0 0 -0 -0 0 -0 -1 -1 -0 -0 -0 -0 -0 -0 -0 -0 -0 0 0 nan
nan 0 0 -0 -0 -0 -0 -0 -1 -1 -1 -0 -0 0 0 0 -1 -0 -0 0 -0 -0 -0 0 -0 -0 -0 -0 0 -0 -0 -1 -0 -0 -0 0 0 -0 -1 -1 -0 0 -0 -0 nan
nan 0 0 1 -0 -0 -0 -0 -1 -1 -1 -1 0 0 0 -0 -0 -0 -0 0 -0 -0 -0 -0 -0 -0 -0 -0 -0 0 0 0 -0 -0 -1 -0 0 -0 -0 -1 0 -1 -0 0 nan
nan -0 -1 0 1 -0 -0 -0 -1 -1 -1 -1 -0 1 -0 -2 0 0 0 0 0 -0 -0 -0 0 0 0 -0 0 -0 -0 -0 -0 -0 -0 -0 0 -0 -1 0 0 -1 -1 -1 nan
nan -0 0 -1 0 0 0 -0 -1 -1 -1 -1 -0 0 -1 -1 0 0 -0 0 -0 -0 -0 0 0 0 0 -0 -0 -0 -0 -0 -0 -0 -0 1 0 -1 -0 1 -0 -1 -0 -1 nan
nan -0 -0 -0 -0 0 -0 0 -0 -1 -0 -1 -0 0 -0 -0 0 -0 -0 0 0 -0 0 0 -0 0 0 0 -0 0 0 -0 -1 -1 0 0 -0 -0 -1 0 0 -1 -0 -1 nan
nan -0 -0 -0 -0 0 0 -1 -0 -0 -0 -0 -0 -0 -1 -0 -0 0 -0 -0 0 0 0 0 0 0 0 0 0 0 -0 -0 -0 -0 0 0 0 -1 -1 1 -0 -1 -0 -0 nan
nan -0 -0 -0 -0 0 0 -1 -0 0 -0 -0 0 -0 -0 -0 -0 -0 0 -0 0 0 0 0 -0 -0 -0 -0 -0 -0 -0 -0 -0 -0 0 0 -0 -1 -1 -0 -0 -1 -1 -1 nan
nan -0 -0 -0 -0 -0 0 -0 -0 -0 -0 -0 -1 -0 0 -0 0 0 0 0 0 0 -0 -0 -0 -0 -0 -0 -0 0 -0 -0 -0 -0 -0 -0 -1 -1 -0 -0 -0 -0 -1 -1 nan
nan -0 -0 -0 -0 -0 0 -0 -0 0 -0 -0 -1 0 1 -0 0 0 0 -0 -0 -0 -0 -0 0 -0 0 -0 0 0 0 0 -0 -0 -0 -0 -0 -0 -0 -0 -1 -1 -0 -0 nan
nan -0 -0 -0 -0 -0 0 0 -0 -0 -0 -0 0 -0 0 0 -0 0 0 0 -0 -0 0 -0 0 0 -0 -0 0 0 -0 -0 -0 -0 0 -0 0 -1 -1 -0 -0 -0 -1 -1 nan
nan -0 -0 0 -0 -0 -0 -0 -0 -0 0 -0 -0 0 0 0 -0 -0 0 0 -0 -0 -0 0 0 0 -0 -0 -0 0 -0 -0 -0 -0 -0 -0 -0 -0 -1 -0 -0 -0 -0 -1 nan
nan -0 -0 0 0 -0 -0 0 -0 0 -0 0 0 -0 0 0 0 0 0 0 0 -0 0 0 0 -0 -0 0 -0 -0 -0 -0 -0 -0 -0 -0 -0 -0 -0 -0 0 -0 -0 -0 nan
nan 0 0 0 0 0 0 0 -0 -0 -0 0 -0 0 0 0 0 0 0 0 0 0 0 0 0 0 -0 0 0 -0 -1 -0 -0 0 -0 0 -0 -1 -1 -1 0 -0 -1 0 nan
nan -0 0 0 0 -0 -0 -0 -0 -0 -0 0 0 0 0 0 0 0 -0 0 -0 -0 -0 0 -0 0 0 -0 0 0 -0 -0 0 -0 -0 -0 -0 -1 -1 -1 -1 -0 0 0 nan
nan 0 -0 -0 0 0 -0 -0 -0 -0 -0 0 0 0 0 0 0 0 0 -0 -0 -0 -0 -0 -0 -0 -0 -0 -0 -0 -0 -0 -0 0 -0 -1 -1 -1 -0 -0 -0 -1 -1 -1 nan
nan 0 -0 -0 -0 -0 0 -0 0 -0 -0 0 0 -0 -0 0 0 0 0 -0 -0 -0 -0 -0 0 0 0 0 0 -0 -0 -0 0 -0 -0 -0 -0 -1 0 -0 -0 -0 -0 -1 nan
nan 0 -0 -0 0 -0 0 -0 -0 -0 -1 0 -0 -0 -0 -0 -0 -0 0 -0 -0 -0 0 -0 -0 0 0 0 0 0 0 -0 -0 -0 0 -0 -1 -0 0 0 -0 0 -0 -1 nan
nan 0 0 -0 -0 -0 -0 -0 -0 -0 -0 -0 -0 -0 -0 -0 -0 -0 -0 -0 -1 -0 -0 -0 -0 -0 -0 -0 -0 0 -0 -0 -0 -0 -0 -0 -1 -1 -0 -0 -0 -0 -1 -1 nan
nan 0 -0 0 0 0 -0 -0 -0 -0 -0 -0 -0 -0 -1 -0 -0 0 0 0 -0 -0 -0 -0 -0 0 0 -0 0 0 -0 0 -0 -0 -0 0 -1 -0 -0 -0 -0 0 -0 -1 nan
nan 0 -0 0 0 -0 0 0 -0 -0 -0 -0 0 -0 -0 -0 -0 -0 0 -0 0 0 0 -0 -0 0 0 0 -0 -0 0 0 0 -0 -0 -1 -1 -1 -0 -0 0 0 -0 -0 nan
nan -0 -0 -0 0 -0 0 0 0 0 -0 0 0 0 0 -0 -0 -0 -0 -0 0 0 -0 -0 0 -0 -0 -0 -0 0 -0 0 -0 -1 -0 -1 -0 -1 -0 0 -0 -0 0 -0 nan
nan -0 -0 -0 -0 0 -0 -0 0 0 0 0 0 -0 -1 -0 0 -0 -0 -0 0 -0 -0 -0 0 -0 -0 -1 -0 0 -0 -0 -1 -0 -0 0 -1 -1 -0 -0 1 -0 -1 -1 nan
nan nan nan nan nan nan nan nan nan nan nan nan nan nan nan nan nan nan nan nan nan nan nan nan nan nan nan nan nan nan nan nan nan nan nan nan nan nan nan nan nan nan nan nan nan
Wind_Speed
21 20 20 18 19 19 18 15 16 19 18 17 15 13 11 12 13 14 19 21 27 16 6 8 10 15 12 10 16 13 2 5 8 7 6 22 6 9 5 11 6 4 8 22 16
22 21 21 21 20 19 20 18 15 12 20 18 16 13 11 11 14 20 20 12 14 22 17 12 12 12 13 10 8 7 5 6 4 7 7 9 5 10 3 5 3 7 10 19 15
23 24 24 22 22 21 20 22 18 15 13 18 16 12 9 8 10 21 15 20 21 20 14 16 13 14 15 16 16 4 5 5 11 19 10 5 7 7 4 1 9 9 11 15 16
26 25 25 26 25 23 23 21 23 18 15 17 17 11 8 8 5 2 3 20 24 21 18 20 15 8 8 8 16 7 7 19 20 25 15 3 8 8 3 5 10 8 10 10 22
26 26 26 25 26 26 24 23 20 22 19 15 17 12 10 10 14 3 1 10 23 19 21 22 17 14 7 7 14 6 8 21 21 20 13 7 6 6 16 18 13 16 15 13 11
31 26 27 27 27 27 26 24 22 20 19 19 17 15 15 7 7 11 7 8 18 24 24 20 9 13 5 4 4 2 7 6 9 15 14 10 7 7 4 23 27 25 26 21 16
31 30 28 27 28 27 28 26 23 20 21 23 10 19 17 23 9 12 10 5 6 17 23 23 11 9 6 3 3 1 4 8 8 11 6 10 7 7 23 27 29 32 32 34 28
33 29 28 30 26 28 27 24 22 20 23 22 14 21 10 16 19 12 13 13 13 11 11 15 16 6 4 1 3 4 3 2 4 11 13 12 11 8 20 25 31 38 39 38 36
32 30 28 27 26 25 25 24 23 21 16 29 21 18 8 15 22 23 14 17 16 11 12 11 15 5 6 2 2 1 4 6 7 12 6 12 4 14 25 22 24 32 34 37 42
30 28 26 25 26 26 24 24 23 16 18 20 21 12 10 17 26 24 19 18 17 15 13 10 6 3 3 4 5 5 4 3 5 4 4 6 9 8 20 23 18 22 23 26 35
28 25 25 25 25 20 22 23 7 4 15 15 13 6 7 18 19 24 27 19 20 18 5 7 3 5 9 6 5 4 3 5 4 5 4 8 9 12 15 25 25 25 32 35 35
24 25 23 24 20 21 18 11 10 5 7 19 18 27 18 28 16 27 28 12 13 10 7 3 4 5 6 9 9 9 7 4 6 3 5 10 18 16 19 18 29 32 31 38 40
24 23 23 21 19 15 13 15 13 9 3 8 25 23 27 17 10 28 28 11 11 7 8 6 4 7 5 5 4 2 2 2 4 6 4 9 10 8 8 20 33 35 35 34 41
25 25 23 20 14 11 11 12 9 5 3 3 9 9 15 15 6 25 28 19 5 10 8 3 3 2 5 4 4 1 5 1 3 4 4 4 6 6 8 8 5 18 26 35 38
29 24 19 19 19 18 9 13 10 2 1 12 9 18 23 5 25 19 24 3 8 8 6 6 5 5 3 3 4 3 5 5 4 3 5 3 2 7 6 4 5 3 12 26 24
25 22 24 29 28 22 8 9 2 3 3 2 7 10 11 20 4 24 10 3 6 4 6 4 6 4 5 2 4 6 3 3 3 3 2 7 5 4 2 4 2 4 18 12 13
26 29 31 18 19 9 9 3 3 3 2 5 5 18 14 8 6 11 10 5 5 6 3 3 3 1 2 4 3 4 5 2 1 1 6 2 4 7 10 13 8 9 9 7 7
33 34 11 9 7 14 15 3 3 1 4 0 10 18 9 11 13 9 9 4 3 4 5 5 1 8 5 5 6 5 5 4 5 3 4 4 6 6 7 14 16 8 2 7 8
36 18 13 8 5 18 9 2 2 1 2 4 14 6 5 6 8 6 6 7 5 6 5 4 3 6 7 3 6 3 4 4 1 3 3 5 7 9 8 7 7 10 6 10 16
21 9 14 7 11 19 2 5 1 0 5 5 4 3 5 7 9 5 9 7 4 8 2 2 4 7 5 5 4 5 4 3 2 0 4 5 5 7 4 7 7 8 11 19 22
12 5 10 12 20 3 1 3 4 15 6 3 4 6 8 8 9 6 12 8 11 11 5 1 4 2 3 5 8 5 2 2 3 4 4 2 6 5 4 4 1 4 17 24 26
9 3 8 8 3 1 3 2 6 5 6 6 1 9 9 5 9 4 9 4 21 12 6 2 3 3 7 5 7 4 5 5 4 5 3 2 8 8 13 4 9 23 27 30 26
5 5 6 8 2 2 4 4 5 3 5 1 5 4 13 6 7 4 7 3 21 13 10 5 3 3 3 3 4 5 8 5 3 2 6 2 6 2 7 15 30 20 27 27 27
4 2 4 4 3 3 2 4 5 7 5 1 6 16 7 4 5 5 4 5 7 8 14 7 4 5 5 2 4 4 5 7 9 3 4 10 14 22 18 19 23 31 24 12 13
6 2 3 3 3 4 6 5 6 8 9 9 13 10 8 5 11 6 5 3 7 4 4 3 3 2 5 7 5 7 7 8 9 16 8 21 16 22 21 23 25 29 22 20 20
4 3 6 4 8 2 1 3 3 6 6 4 7 4 10 7 3 5 7 3 3 1 3 2 1 2 5 9 10 10 12 13 17 20 16 23 26 22 22 25 18 12 15 17 18
12 12 3 7 3 1 1 3 4 6 13 11 9 8 11 6 14 12 13 14 10 7 4 4 3 1 4 4 3 5 10 16 7 7 10 11 13 13 15 8 9 14 17 15 17
Wind_Direction
346 341 340 322 304 299 292 287 293 275 279 293 296 289 286 275 254 248 244 234 204 180 180 221 205 203 198 238 229 226 208 211 221 228 251 292 12 309 156 160 142 132 136 152 159
341 339 338 337 326 314 301 297 280 291 269 281 292 287 283 274 260 251 250 210 203 217 226 216 196 194 211 216 229 187 207 229 221 234 263 274 353 326 189 168 199 207 130 159 172
332 333 332 331 330 325 309 297 286 260 312 266 282 285 274 266 283 267 249 209 190 207 209 200 201 204 213 229 220 217 204 229 266 258 300 291 308 327 352 313 225 212 199 190 195
326 325 325 324 324 324 315 312 283 265 253 260 267 269 251 212 230 297 255 196 196 204 207 200 216 233 175 211 236 243 267 240 263 267 283 245 303 325 299 267 304 262 248 290 208
320 317 319 318 317 319 316 308 309 283 248 318 240 245 219 214 237 253 242 191 200 199 199 192 212 224 173 193 239 218 244 256 256 266 298 251 251 261 286 280 257 261 270 276 241
318 312 313 314 313 313 309 308 297 285 267 255 231 220 211 236 240 244 212 199 206 206 201 203 204 207 208 246 226 331 239 263 286 304 309 274 248 251 258 260 270 272 261 259 257
318 317 313 311 309 308 306 305 293 294 256 246 270 214 214 221 190 207 196 173 182 197 206 205 195 183 189 288 4 309 353 339 310 289 271 320 271 221 251 260 264 263 262 261 254
318 317 312 312 309 309 305 303 291 277 261 272 272 202 223 237 184 192 205 178 187 187 206 209 202 180 128 339 21 44 24 279 239 246 238 202 253 237 248 250 253 256 254 253 256
321 317 312 312 311 310 307 303 292 284 271 258 258 178 229 212 212 211 202 180 163 158 182 191 173 174 132 118 76 161 234 216 295 245 205 184 233 239 246 255 255 257 248 250 250
318 317 316 314 313 311 312 306 298 277 268 258 257 163 225 201 201 192 186 169 166 162 133 145 169 145 106 139 199 196 222 231 241 284 224 237 260 270 273 277 269 268 252 249 248
320 319 316 316 319 315 319 320 330 273 221 211 181 166 289 185 192 186 168 169 172 157 154 172 141 185 197 207 245 320 265 245 253 281 258 240 251 260 253 262 268 261 261 256 251
324 320 318 321 318 322 313 296 276 279 309 240 252 199 156 154 155 171 165 163 157 161 129 108 199 199 187 211 237 265 264 277 295 343 358 307 291 273 258 246 247 246 250 251 253
327 325 321 320 322 325 331 313 276 266 260 283 232 197 152 150 158 172 172 158 156 162 141 138 140 196 220 286 176 262 257 284 267 335 352 341 284 255 273 242 245 247 245 247 249
330 327 320 322 320 309 341 346 359 5 232 207 194 237 179 147 129 173 169 142 151 175 143 175 173 178 145 227 151 247 13 49 35 35 261 65 290 292 269 286 233 244 241 239 244
326 317 312 314 300 304 314 324 343 244 56 155 174 160 176 184 137 186 179 169 164 159 132 209 143 142 155 203 165 199 76 60 41 29 7 283 201 279 257 263 296 279 297 244 240
327 318 312 304 297 275 260 314 17 58 259 148 123 172 140 145 131 157 173 127 143 111 114 120 102 134 178 80 116 132 83 32 47 68 309 229 187 282 252 221 211 307 347 270 231
327 320 313 299 273 269 209 217 43 144 238 135 167 145 142 128 112 153 154 138 138 119 129 71 142 128 102 117 122 101 88 32 268 233 234 104 189 252 286 288 276 291 293 148 138
333 328 341 310 263 174 185 154 208 296 126 56 133 141 129 119 139 146 146 138 301 85 115 145 248 166 193 170 172 160 147 156 211 212 287 308 229 254 233 257 285 236 239 208 193
337 355 7 344 207 176 158 172 267 302 8 147 118 119 112 96 131 141 178 168 199 182 123 140 279 157 158 139 127 179 201 186 83 309 51 259 298 303 312 36 51 24 2 356 340
349 16 19 41 149 150 25 299 327 353 288 134 82 163 120 127 135 144 157 201 199 208 120 149 112 154 145 114 241 167 160 79 356 289 275 282 266 239 21 27 31 29 18 354 339
9 51 33 96 130 111 339 292 339 298 226 134 151 121 120 140 131 146 179 174 189 195 170 152 98 67 117 200 185 189 193 171 126 155 197 294 271 227 156 109 119 24 331 318 311
25 54 110 99 51 315 276 14 355 318 219 275 233 105 150 139 154 130 185 205 191 167 163 117 104 160 207 216 205 175 196 174 129 272 236 197 261 283 288 99 346 332 328 315 304
49 50 152 359 28 347 310 347 232 296 314 177 127 122 140 132 147 130 125 358 176 164 172 140 144 156 127 351 156 198 215 190 177 69 217 155 263 270 339 325 323 312 307 304 305
56 67 350 325 308 269 5 324 318 286 266 343 126 126 121 119 100 123 103 40 111 122 153 135 154 183 176 134 126 197 202 188 185 175 255 232 274 281 291 298 311 304 304 337 338
44 26 28 328 310 295 4 344 351 13 353 49 110 124 148 149 118 113 91 75 71 84 90 97 168 210 250 248 219 223 210 211 204 232 234 273 273 284 301 299 291 288 271 296 293
72 360 344 279 293 19 58 343 17 3 11 48 128 86 72 60 200 148 127 133 166 79 104 55 259 29 292 255 230 235 234 221 229 244 252 259 276 278 285 287 303 341 326 312 298
19 13 359 291 321 4 3 237 283 352 18 63 83 76 59 31 63 102 156 167 154 143 136 136 176 160 270 311 313 271 231 208 210 228 230 251 260 304 311 350 358 339 329 335 330
Height
1496 1493 1490 1487 1486 1484 1483 1482 1481 1481 1479 1479 1477 1476 1475 1475 1474 1475 1473 1475 1480 1483 1485 1489 1490 1493 1495 1497 1499 1500 1505 1506 1500 1499 1494 1485 1488 1486 1482 1483 1485 1489 1492 1493 1497
1495 1492 1489 1486 1482 1481 1479 1478 1477 1476 1476 1475 1475 1473 1472 1472 1471 1468 1468 1472 1477 1481 1483 1486 1487 1490 1493 1493 1496 1494 1499 1496 1489 1491 1491 1488 1487 1487 1483 1482 1484 1488 1491 1493 1494
1495 1490 1487 1483 1480 1477 1475 1473 1472 1472 1470 1471 1471 1469 1470 1470 1469 1460 1463 1468 1472 1477 1480 1484 1486 1490 1491 1491 1491 1488 1493 1489 1488 1488 1489 1488 1485 1485 1485 1484 1483 1486 1490 1493 1492
1492 1488 1484 1480 1476 1473 1471 1467 1465 1465 1466 1465 1467 1467 1467 1468 1469 1459 1459 1463 1469 1472 1478 1481 1482 1487 1487 1488 1486 1490 1486 1488 1487 1486 1488 1487 1485 1483 1483 1484 1483 1485 1487 1490 1490
1487 1484 1480 1477 1473 1469 1467 1464 1461 1461 1460 1460 1461 1464 1464 1465 1459 1458 1460 1463 1467 1470 1473 1475 1478 1482 1482 1483 1484 1485 1485 1485 1485 1484 1485 1482 1482 1483 1479 1480 1479 1479 1482 1487 1489
1482 1479 1476 1472 1468 1465 1462 1459 1457 1455 1456 1457 1456 1458 1460 1459 1456 1457 1460 1462 1463 1467 1470 1474 1476 1480 1480 1480 1481 1480 1482 1482 1482 1481 1482 1482 1479 1479 1478 1478 1477 1478 1477 1482 1485
1477 1473 1469 1467 1463 1460 1457 1454 1452 1450 1449 1451 1451 1452 1453 1452 1454 1455 1458 1459 1461 1464 1467 1471 1474 1476 1477 1477 1478 1479 1482 1479 1478 1479 1479 1480 1477 1474 1475 1475 1475 1475 1475 1474 1479
1471 1468 1464 1460 1458 1454 1450 1447 1446 1444 1444 1444 1444 1445 1445 1446 1450 1452 1455 1458 1460 1462 1465 1469 1471 1474 1476 1478 1477 1479 1482 1488 1476 1475 1474 1480 1473 1470 1469 1471 1470 1469 1469 1469 1469
1466 1462 1459 1455 1451 1448 1445 1441 1439 1439 1439 1439 1439 1438 1442 1441 1442 1446 1452 1455 1458 1462 1464 1468 1471 1474 1476 1478 1483 1483 1492 1486 1480 1467 1468 1472 1471 1462 1463 1466 1463 1462 1461 1462 1464
1461 1457 1454 1450 1446 1442 1439 1436 1432 1432 1434 1435 1435 1439 1435 1433 1439 1443 1450 1454 1457 1460 1464 1467 1471 1473 1477 1481 1489 1486 1487 1480 1480 1468 1464 1467 1469 1460 1457 1458 1457 1456 1456 1456 1456
1456 1452 1449 1445 1441 1438 1435 1432 1431 1429 1427 1422 1420 1421 1420 1429 1437 1440 1447 1451 1455 1459 1463 1465 1471 1476 1476 1477 1476 1478 1478 1478 1473 1469 1470 1468 1466 1460 1454 1453 1448 1448 1449 1447 1447
1451 1448 1445 1441 1437 1435 1433 1430 1430 1429 1425 1419 1417 1422 1421 1428 1434 1440 1444 1449 1452 1457 1461 1468 1470 1469 1471 1474 1476 1478 1479 1477 1469 1465 1467 1465 1457 1453 1445 1442 1439 1439 1439 1438 1441
1448 1444 1441 1437 1434 1433 1430 1428 1426 1426 1426 1417 1416 1421 1423 1428 1432 1436 1442 1445 1449 1456 1458 1466 1466 1466 1471 1475 1474 1475 1476 1476 1478 1471 1468 1467 1454 1441 1429 1425 1428 1428 1429 1432 1433
1444 1441 1438 1435 1434 1430 1429 1425 1425 1423 1422 1416 1420 1417 1422 1426 1432 1437 1442 1445 1450 1454 1458 1462 1462 1465 1469 1473 1473 1477 1475 1474 1476 1480 1485 1476 1477 1450 1429 1424 1423 1421 1422 1423 1425
1440 1437 1434 1432 1430 1430 1429 1426 1425 1423 1419 1410 1414 1412 1419 1424 1430 1439 1441 1443 1447 1449 1456 1464 1462 1465 1470 1471 1471 1477 1475 1478 1479 1484 1490 1479 1484 1446 1435 1427 1422 1419 1416 1416 1418
1435 1433 1430 1426 1422 1420 1426 1424 1424 1427 1422 1402 1406 1408 1418 1424 1427 1434 1440 1443 1446 1449 1454 1459 1461 1466 1469 1470 1471 1475 1477 1479 1482 1489 1500 1476 1474 1453 1434 1424 1420 1417 1415 1413 1418
1431 1427 1421 1417 1415 1417 1423 1424 1431 1436 1413 1407 1406 1409 1416 1422 1430 1435 1439 1444 1449 1460 1467 1462 1465 1467 1467 1473 1473 1475 1484 1512 1488 1493 1497 1466 1474 1449 1430 1421 1418 1417 1416 1416 1419
1425 1419 1414 1413 1413 1415 1420 1425 1430 1405 1403 1403 1402 1411 1417 1423 1433 1436 1441 1447 1446 1448 1467 1475 1481 1468 1466 1470 1475 1478 1482 1505 1502 1502 1480 1463 1463 1437 1419 1415 1414 1413 1414 1416 1418
1419 1414 1412 1411 1410 1415 1422 1421 1412 1409 1405 1402 1410 1416 1421 1424 1431 1437 1442 1447 1446 1447 1460 1469 1467 1460 1463 1465 1471 1477 1486 1480 1493 1489 1504 1471 1448 1428 1416 1418 1416 1416 1417 1419 1417
1418 1415 1415 1412 1413 1421 1424 1415 1414 1414 1412 1405 1408 1412 1419 1424 1432 1436 1442 1444 1444 1446 1449 1452 1466 1461 1463 1465 1469 1473 1473 1492 1507 1512 1499 1469 1455 1437 1423 1423 1421 1421 1421 1421 1420
1420 1419 1421 1420 1422 1425 1427 1418 1414 1410 1408 1408 1408 1409 1417 1424 1429 1436 1442 1438 1442 1444 1448 1448 1459 1473 1466 1469 1468 1471 1473 1476 1484 1493 1501 1489 1456 1424 1420 1420 1421 1422 1422 1420 1418
1423 1424 1427 1428 1429 1428 1423 1418 1419 1412 1410 1408 1406 1410 1418 1423 1431 1430 1438 1435 1438 1440 1449 1449 1458 1472 1471 1463 1463 1467 1470 1471 1500 1496 1495 1486 1459 1419 1415 1418 1419 1416 1415 1414 1411
1428 1430 1430 1429 1432 1430 1421 1421 1419 1411 1407 1403 1404 1407 1415 1420 1430 1428 1432 1432 1435 1439 1443 1450 1460 1465 1463 1464 1462 1468 1464 1467 1473 1482 1492 1486 1452 1416 1418 1417 1417 1417 1415 1410 1405
1432 1433 1431 1430 1430 1428 1423 1422 1415 1412 1409 1403 1406 1410 1415 1421 1424 1430 1435 1436 1437 1439 1443 1447 1455 1468 1470 1459 1459 1468 1461 1465 1467 1481 1463 1457 1437 1420 1422 1419 1416 1412 1409 1404 1402
1434 1436 1437 1432 1429 1428 1427 1423 1418 1412 1409 1408 1413 1416 1418 1421 1425 1431 1435 1440 1442 1443 1445 1450 1465 1458 1457 1455 1456 1458 1460 1459 1467 1455 1461 1428 1433 1421 1421 1419 1412 1407 1404 1401 1398
1438 1439 1437 1435 1432 1428 1429 1427 1423 1416 1415 1414 1416 1416 1419 1424 1422 1429 1434 1439 1441 1446 1448 1451 1464 1456 1463 1449 1449 1453 1449 1450 1448 1444 1442 1435 1426 1424 1417 1411 1407 1405 1400 1397 1393
1440 1440 1439 1434 1432 1431 1431 1430 1424 1420 1418 1418 1420 1422 1425 1429 1426 1425 1429 1433 1436 1443 1446 1453 1458 1463 1462 1443 1443 1450 1434 1435 1435 1432 1427 1431 1420 1416 1412 1407 1407 1403 1400 1395 1389